EXPRESS-AM8

Last updated on Mon Jun 22 2026 00:03:05 GMT+0000 (Coordinated Universal Time)

1 40895U 15048A 26172.67244326 -.00000112 00000+0 00000+0 0 9999 2 40895 0.0173 320.0076 0000512 5.3374 172.5956 1.00272350 39396
UTC large
Height (km)
Speed (km/s)
/
Latitude / Longitude
Inclination (degrees)
Orbital Period (minutes)
Azimuth
Elevation
Range (km)
Doppler Factor

Next 0 passes for location: London (51.5072 / 0.1276)

No passes found over London.
EXPRESS-AM8